Weather History for Scarborough, Trinidad And Tobago

Change the Weather History Date:

Tuesday, July 9, 2013

  Actual Average Record
Temperature  
Mean Temperature 82 °F -  
Max Temperature 86 °F 84 °F 89 °F (2014)
Min Temperature 77 °F 75 °F 73 °F (1999)
Cooling Degree Days 16    
Growing Degree Days 32 (Base 50)    
Moisture  
Dew Point 74 °F    
Average Humidity 80    
Maximum Humidity 89    
Minimum Humidity 70    
Precipitation  
Precipitation 0.00 in - - ()
Sea Level Pressure  
Sea Level Pressure 29.99 in    
Wind  
Wind Speed 7 mph ()    
Max Wind Speed 14 mph    
Max Gust Speed -    
Visibility 6.2 miles    
Events Rain , Thunderstorm    
Averages and records for this station are not official NWS values.
T = Trace of Precipitation, MM = Missing Value Source: Averaged Metar Reports

Daily Weather History Graph

Daily Weather History Graph

Search for Another Location

Airport:

Trip Planner

Search our weather history database for the weather conditions in past years. The results will help you decide how hot, cold, wet, or windy it might be!

Date:

Astronomy

Jul. 09, 2013 Rise Set
Actual Time 5:46 AM AST 6:30 PM AST
Civil Twilight 5:23 AM AST 6:53 PM AST
Nautical Twilight 4:56 AM AST 7:20 PM AST
Astronomical Twilight 4:28 AM AST 7:48 PM AST
Moon 6:45 AM AST (7/9) 7:31 PM AST (7/9)
Length of Visible Light 13h 30m
Length of Day
12h 44m
New Moon, 2% of the Moon is Illuminated
Jul 9
New Moon
Jul 15
First Quarter
Jul 22
Full
Jul 29
Last Quarter
Aug 6
New

Hourly Weather History & Observations

Time (AST) Temp. Heat Index Dew Point Humidity Pressure Visibility Wind Dir Wind Speed Gust Speed Precip Events Conditions
1:00 AM 78.8 °F - 73.4 °F 83% 29.98 in 6.2 mi ENE 3.5 mph - N/A   Scattered Clouds
4:00 AM 77.0 °F - 71.6 °F 83% 29.95 in - Calm Calm - N/A   Scattered Clouds
6:00 AM 77.0 °F - 73.4 °F 89% 29.95 in - Calm Calm - N/A   Mostly Cloudy
7:00 AM 77.0 °F - 73.4 °F 89% 29.98 in 6.2 mi North - - N/A   Mostly Cloudy
8:00 AM 82.4 °F 90.9 °F 77.0 °F 84% 29.98 in 6.2 mi Calm Calm - N/A   Mostly Cloudy
9:00 AM 82.4 °F 88.2 °F 73.4 °F 74% 29.98 in 6.2 mi SE 9.2 mph - N/A   Mostly Cloudy
10:00 AM 84.2 °F 92.3 °F 75.2 °F 74% 30.01 in 6.2 mi ESE 11.5 mph - N/A   Mostly Cloudy
11:00 AM 84.2 °F 90.9 °F 73.4 °F 70% 30.01 in 6.2 mi ESE 13.8 mph - N/A   Mostly Cloudy
12:00 PM 86.0 °F 95.1 °F 75.2 °F 70% 30.01 in 6.2 mi ESE 13.8 mph - N/A Thunderstorm Thunderstorm
1:00 PM 84.2 °F 92.3 °F 75.2 °F 74% 30.01 in 6.2 mi ESE 13.8 mph - N/A   Mostly Cloudy
2:00 PM 82.4 °F 92.4 °F 78.8 °F 89% 29.98 in 6.2 mi ESE 13.8 mph - N/A Rain Light Rain Showers
3:00 PM 82.4 °F 90.9 °F 77.0 °F 84% 29.98 in 6.2 mi ESE 13.8 mph - N/A   Mostly Cloudy
4:00 PM 82.4 °F 89.5 °F 75.2 °F 79% 29.95 in 6.2 mi ESE 11.5 mph - N/A   Mostly Cloudy
5:00 PM 82.4 °F 88.2 °F 73.4 °F 74% 29.95 in 6.2 mi ESE 11.5 mph - N/A   Mostly Cloudy
6:00 PM 82.4 °F 88.2 °F 73.4 °F 74% 29.95 in 6.2 mi East 9.2 mph - N/A   Mostly Cloudy
7:00 PM 80.6 °F 85.4 °F 73.4 °F 79% 29.98 in 6.2 mi East 8.1 mph - N/A   Mostly Cloudy
8:00 PM 80.6 °F 86.2 °F 75.2 °F 84% 29.98 in 6.2 mi East 5.8 mph - N/A   Scattered Clouds
9:00 PM 82.4 °F 89.5 °F 75.2 °F 79% 30.01 in 6.2 mi East 11.5 mph - N/A   Scattered Clouds
10:00 PM 80.6 °F 85.4 °F 73.4 °F 79% 30.04 in 6.2 mi East 13.8 mph - N/A   Scattered Clouds
11:00 PM 80.6 °F 85.4 °F 73.4 °F 79% 30.04 in 6.2 mi East 11.5 mph - N/A   Scattered Clouds